Location: Riverside Cemetery
(38.3047°N, 99.7773°W)
Time: 11:12:58
(UTC+00:00)

H-2A R/B - Pass Details

Date: 19 September 2020
Orbit: 734 x 836 km, 98.2° (Epoch: 25 October)

Event Time Altitude Azimuth Distance (km) Brightness Sun altitude
Rises 01:53:32 0° 169° (SSE) 3,150 4.9 -14.8°
Reaches altitude 10° 01:55:47 10° 170° (S) 2,236 4.2 -15.2°
Maximum altitude 02:00:42 80° 257° (WSW) 761 2.0 -16.2°
Drops below altitude 10° 02:05:44 10° 345° (NNW) 2,294 4.9 -17.1°
Sets 02:08:05 0° 347° (NNW) 3,238 5.7 -17.6°
